#timestamp,LO_Frequency,Hit 
1501585215.4,286046854.4,N
1501585235.2,286046854.5,N
1501585255.0,286046856.7,N
1501585256.0,286046856.7,N
1501585275.8,286046856.6,N
1501585295.6,286046854.1,N
1501585315.4,286046852.5,N
1501585335.3,286046853.7,N
1501585355.1,286046852.4,N
1501585375.8,286046852.0,N
1501585395.7,286046851.2,N
1501585415.5,286046851.2,N
1501585435.3,286046852.9,N
1501585455.2,286046854.0,N
1501585475.9,286046851.6,N
1501585495.7,286046852.3,N
1501585515.6,286046853.8,N
1501585535.4,286046852.8,N
1501585555.2,286046853.1,N
1501585575.1,286046851.4,N
1501585576.0,286046851.4,N
1501585595.8,286046850.2,N
1501585615.6,286046850.6,N
1501585635.4,286046849.4,N
1501585655.3,286046849.6,N
1501585675.1,286046853.3,N
1501585695.8,286046852.6,N
1501585715.7,286046853.2,N
1501585735.5,286046852.5,N
1501585755.3,286046853.3,N
1501585775.2,286046851.3,N
1501585795.9,286046851.9,N
1501585815.7,286046849.5,N
1501585835.6,286046850.0,N
1501585855.4,286046848.1,N
1501585875.2,286046850.2,N
1501585895.1,286046850.1,N
1501585896.0,286046850.1,N
1501585915.8,286046847.8,N
1501585935.6,286046847.4,N
1501585955.5,286046847.0,N
1501585975.3,286046846.6,N
1501585995.1,286046847.1,N
1501586015.8,286046845.0,N
1501586035.7,286046845.0,N
1501586055.5,286046844.7,N
1501586075.3,286046850.4,N
1501586095.2,286046847.8,N
1501586115.9,286046848.9,N
1501586135.7,286046847.5,N
1501586155.6,286046847.1,N
1501586175.4,286046845.3,N
1501586195.2,286046843.3,N
1501586215.1,286046846.0,N
1501586216.0,286046846.0,N
1501586235.8,286046843.6,N
1501586255.6,286046845.1,N
1501586275.5,286046846.8,N
1501586295.3,286046844.9,N
1501586315.1,286046846.4,N
1501586335.9,286046845.3,N
1501586355.7,286046843.0,N
1501586375.5,286046844.8,N
1501586395.3,286046846.6,N
1501586415.2,286046846.7,N
1501586435.0,286046846.5,N
1501586435.9,286046846.5,N
1501586455.7,286046845.5,N
1501586475.6,286046843.5,N
1501586495.4,286046841.6,N
1501586515.2,286046839.7,N
1501586535.1,286046840.2,N
1501586536.0,286046840.2,N
1501586555.8,286046841.7,N
1501586575.6,286046842.3,N
1501586595.5,286046842.8,N
1501586615.3,286046842.4,N
1501586635.1,286046839.7,N
1501586655.9,286046841.0,N
1501586675.7,286046841.5,N
1501586695.5,286046843.0,N
1501586715.4,286046845.9,N
1501586735.2,286046843.8,N
1501586755.0,286046843.3,N
1501586755.9,286046843.3,N
1501586775.7,286046842.9,N
1501586795.6,286046845.6,N
1501586815.4,286046843.4,N
1501586835.2,286046844.1,N
1501586855.1,286046843.5,N
1501586856.0,286046843.5,N
1501586875.8,286046843.0,N
1501586895.6,286046841.9,N
1501586915.5,286046839.8,N
1501586935.3,286046842.1,N
1501586955.1,286046843.5,N
1501586975.9,286046843.3,N
1501586995.7,286046841.7,N
1501587015.5,286046842.4,N
1501587035.4,286046838.2,N
1501587055.2,286046839.3,N
1501587075.0,286046839.3,N
1501587075.9,286046839.3,N
1501587095.8,286046839.4,N
1501587115.6,286046836.9,N
1501587135.4,286046838.4,N
1501587155.2,286046842.1,N
1501587175.1,286046842.9,N
1501587176.0,286046842.9,N
1501587195.8,286046843.8,N
1501587215.6,286046844.1,N
1501587235.5,286046842.1,N
1501587255.3,286046842.5,N
1501587275.1,286046838.3,N
1501587295.9,286046838.4,N
1501587315.7,286046838.7,N
1501587335.5,286046839.5,N
1501587355.4,286046839.5,N
1501587375.2,286046839.3,N
1501587395.0,286046836.6,N
1501587395.9,286046836.6,N
1501587415.8,286046842.3,N
1501587435.6,286046842.5,N
1501587455.4,286046841.6,N
1501587475.3,286046843.4,N
1501587495.1,286046841.8,N
1501587496.0,286046841.8,N
1501587515.8,286046846.0,N
1501587535.7,286046843.0,N
1501587555.5,286046843.2,N
1501587575.3,286046843.0,N
1501587595.1,286046844.0,N
1501587615.9,286046841.8,N
1501587635.7,286046841.3,N
1501587655.5,286046841.4,N
1501587675.4,286046842.9,N
1501587695.2,286046844.7,N
1501587715.0,286046844.3,N
1501587715.9,286046844.3,N
1501587735.8,286046842.3,N
1501587755.6,286046840.1,N
1501587775.4,286046839.8,N
1501587795.3,286046839.7,N
1501587815.1,286046839.3,N
1501587816.0,286046839.3,N
1501587835.8,286046838.4,N
1501587855.7,286046840.3,N
1501587875.5,286046840.3,N
1501587895.3,286046841.0,N
1501587915.2,286046838.7,N
1501587935.9,286046839.6,N
1501587955.7,286046838.2,N
1501587975.5,286046839.2,N
1501587995.4,286046836.1,N
1501588015.2,286046832.0,N
1501588035.0,286046832.5,N
1501588035.9,286046832.5,N
1501588055.8,286046828.6,N
1501588075.6,286046828.8,N
1501588095.4,286046831.6,N
1501588115.3,286046828.9,N
1501588135.1,286046830.2,N
1501588155.8,286046829.2,N
1501588175.7,286046827.2,N
1501588195.5,286046831.3,N
1501588215.3,286046832.4,N
1501588235.2,286046832.2,N
1501588255.9,286046834.2,N
1501588275.7,286046835.7,N
1501588295.6,286046835.7,N
1501588315.4,286046835.1,N
1501588335.2,286046837.7,N
1501588355.0,286046832.5,N
1501588355.9,286046832.5,N
1501588375.8,286046832.2,N
1501588395.6,286046835.7,N
1501588415.4,286046835.5,N
1501588435.3,286046832.3,N
1501588455.1,286046830.4,N
1501588475.8,286046832.2,N
1501588495.7,286046832.4,N
1501588515.5,286046832.9,N
1501588535.3,286046830.7,N
1501588555.2,286046833.0,N
1501588575.9,286046832.4,N
1501588595.7,286046832.2,N
1501588615.6,286046831.3,N
1501588635.4,286046831.3,N
1501588655.2,286046829.9,N
1501588675.0,286046831.4,N
1501588675.9,286046831.4,N
1501588695.8,286046828.8,N
1501588715.6,286046829.2,N
1501588735.4,286046830.0,N
1501588755.3,286046829.6,N
1501588775.1,286046827.5,N
1501588795.8,286046827.9,N
